Temperature
19 19 18 18 18 18 18 19 19 19 18 18 17 16 15 14 13 13 13 12 12 12 12 12 13 13 13 13 12 12 12 13 13 12 12 12 12 12 12 12 12 11 11 11
18 18 18 17 18 18 18 18 18 18 17 17 16 15 14 14 13 12 12 11 11 11 12 12 12 12 12 12 12 12 12 12 12 12 12 12 12 12 11 11 11 11 11 11
18 18 17 17 17 17 17 17 17 17 17 16 15 14 14 13 12 12 11 11 11 11 11 11 11 11 11 12 11 11 11 11 12 11 11 11 11 11 11 11 11 11 11 11
18 17 17 18 17 17 16 16 16 16 16 15 14 13 12 12 12 11 11 11 11 11 11 11 11 11 11 11 11 11 11 11 11 11 11 11 11 11 11 10 10 10 10 10
17 17 17 17 16 15 16 16 15 15 15 14 13 13 13 11 11 11 11 10 10 10 10 10 10 10 10 10 10 10 10 10 10 11 10 10 10 10 10 10 10 10 10 10
16 16 17 17 16 15 16 16 15 14 14 13 13 14 14 11 10 10 10 10 10 10 10 10 10 10 10 10 10 10 10 10 10 10 10 10 10 10 10 10 9 9 9 9
16 16 17 15 14 14 15 16 14 13 13 13 13 14 12 11 10 10 10 10 9 9 9 9 9 9 9 9 9 9 9 9 9 9 9 9 9 9 9 9 9 8 8 8
16 16 16 14 14 14 15 13 13 12 12 12 12 11 11 10 10 9 9 9 9 9 9 9 9 8 8 9 9 8 9 9 9 9 9 8 8 8 8 8 8 8 8 8
15 15 14 12 13 12 12 12 12 11 11 11 10 10 10 10 9 9 9 9 9 8 8 8 8 8 8 8 8 8 8 8 8 8 8 8 8 8 8 8 7 7 7 7
14 14 13 11 11 11 11 11 11 10 10 10 10 10 9 9 9 9 8 8 8 8 8 8 8 8 8 8 8 7 7 7 7 7 7 7 7 7 7 7 7 6 6 6
13 13 12 11 10 10 10 10 10 10 10 9 9 9 9 9 8 8 8 8 8 8 8 7 7 7 7 7 7 7 7 7 7 7 6 6 6 6 6 6 6 6 6 6
13 12 12 11 10 10 9 9 9 9 9 9 9 9 8 8 8 8 8 8 7 7 7 7 7 7 7 7 7 6 6 6 6 6 6 6 6 6 6 6 6 6 6 6
11 10 10 10 9 9 9 9 9 9 8 8 8 8 8 8 8 7 7 7 7 7 7 7 6 6 6 6 6 6 6 6 6 6 5 5 5 5 5 5 5 5 5 5
8 8 9 9 8 8 8 8 8 8 8 8 7 7 7 7 7 7 6 6 6 6 6 6 6 6 6 5 5 5 5 5 5 5 5 5 5 5 5 5 5 5 5 5
8 8 8 8 8 8 8 8 7 7 7 7 7 7 7 6 6 6 6 6 6 5 5 5 5 5 5 5 5 5 5 5 5 5 4 4 4 4 4 4 4 4 4 4
7 7 7 7 7 7 7 7 7 7 6 6 6 6 6 6 6 6 5 5 5 5 5 4 4 4 4 4 4 4 4 4 4 4 4 4 4 4 4 4 4 4 4 4
7 7 7 7 7 7 7 7 7 6 6 6 6 6 5 5 5 5 5 4 4 4 4 4 4 4 4 4 4 4 4 4 4 3 3 3 3 3 3 3 3 3 3 3
7 7 7 7 6 6 6 6 6 6 6 5 5 5 5 5 4 4 4 4 4 4 4 4 4 4 3 3 3 3 3 3 3 3 3 3 3 3 3 3 3 3 3 3
7 7 6 6 6 6 6 6 5 5 5 5 5 5 4 4 4 4 4 3 3 3 3 3 3 3 3 3 3 3 3 3 3 3 3 3 3 3 2 2 2 2 2 2
6 6 6 6 6 5 5 5 5 5 5 4 4 4 4 4 3 3 3 3 3 3 3 3 3 3 3 3 3 2 2 2 2 2 2 2 2 2 2 2 2 2 2 2
6 6 5 5 5 5 5 5 5 4 4 4 4 4 3 3 3 3 3 2 2 2 2 2 2 2 2 2 2 2 2 2 2 2 2 2 2 2 2 2 2 2 2 2
5 5 5 5 5 5 4 4 4 4 4 4 3 3 3 3 2 2 2 2 2 2 2 2 2 2 2 2 2 1 1 1 1 1 1 1 1 1 1 1 1 1 1 1
5 4 4 4 4 4 4 3 3 3 3 3 3 3 2 2 2 2 2 2 2 2 2 2 1 1 1 1 1 1 1 1 1 1 1 1 1 1 1 1 1 1 1 1
4 4 4 4 4 3 3 3 3 3 3 3 2 2 2 2 2 2 1 1 1 1 1 1 1 1 1 1 1 1 1 1 1 1 1 1 1 1 1 1 1 1 1 1
4 3 3 3 3 3 3 3 3 3 2 2 2 2 1 1 1 1 1 1 1 1 1 1 1 1 0 0 0 0 0 0 0 0 0 0 0 0 0 0 0 0 0 0
3 3 3 3 3 3 3 2 2 2 2 2 2 1 1 1 1 1 1 1 0 0 0 0 0 0 0 -0 -0 -0 -0 -0 -0 0 0 0 0 0 -0 -0 -0 -0 -0 0
3 3 3 3 2 2 2 2 2 2 2 1 1 1 1 1 1 0 0 0 -0 -0 -0 -0 -0 -0 -0 -0 -1 -1 -1 -1 -1 -0 -0 -0 -0 -0 -0 -0 -0 -0 -0 -0
Wind_Speed
7 5 5 7 8 9 11 11 10 9 8 6 4 4 3 2 2 3 4 4 4 4 3 2 2 1 1 1 1 0 0 1 2 2 3 3 3 3 3 4 4 4 5 6
7 5 5 7 8 9 10 10 10 9 8 5 4 3 3 2 2 2 3 4 4 4 4 3 2 2 1 1 1 1 0 1 1 2 2 3 3 3 3 4 4 4 5 6
6 4 6 8 8 8 7 7 7 8 6 2 2 2 2 2 1 2 3 4 4 4 3 4 3 2 2 1 1 1 1 1 1 2 2 3 3 3 4 4 4 5 5 5
5 5 8 2 1 3 5 5 4 4 3 2 2 2 2 1 1 2 2 3 3 4 4 4 3 3 2 1 1 1 2 2 2 2 3 3 3 3 4 4 5 5 5 5
5 7 7 3 2 2 5 5 3 4 3 1 1 1 2 0 1 2 2 3 3 4 4 4 4 3 3 2 2 2 2 3 3 3 3 4 4 4 4 4 5 5 5 6
6 6 6 1 1 2 5 5 1 2 2 2 2 4 2 1 2 2 2 3 3 4 4 4 4 3 3 3 3 3 4 4 4 4 4 4 5 5 5 5 5 5 6 6
9 8 5 2 2 2 4 2 1 1 2 3 4 4 2 1 1 2 2 3 3 3 4 4 4 4 4 4 4 5 5 5 4 4 4 4 5 4 5 5 5 5 6 6
6 7 4 3 3 3 2 2 0 1 2 2 3 2 1 1 2 2 3 3 3 3 3 3 3 4 4 4 5 5 5 4 4 5 4 4 4 4 4 4 5 5 5 5
4 3 2 2 2 2 2 2 2 2 2 2 3 3 3 2 2 3 3 3 3 3 3 3 4 4 5 5 5 5 5 5 5 5 4 4 4 4 4 4 4 4 4 5
5 4 3 2 2 2 3 3 3 2 2 3 3 3 3 3 3 3 4 4 3 4 4 5 5 5 5 5 5 4 5 5 4 4 4 4 3 3 4 4 4 4 5 5
7 5 4 3 4 3 3 3 2 2 3 3 3 3 3 3 3 3 4 4 4 4 5 6 5 5 5 5 4 4 5 5 4 4 4 4 4 4 5 4 4 5 5 5
6 5 5 6 4 4 3 3 3 3 3 3 3 3 3 3 3 4 4 4 4 5 6 6 5 5 5 4 4 4 4 4 4 4 4 4 4 4 3 4 4 5 6 6
6 5 5 5 5 4 5 5 4 4 4 4 4 4 4 4 4 4 4 4 4 5 5 6 5 5 5 4 4 5 5 5 4 4 4 4 4 4 4 4 3 4 5 5
5 4 5 5 5 5 5 5 5 5 4 4 4 4 4 4 4 4 4 5 5 5 5 5 5 5 5 5 4 5 5 4 4 4 4 4 4 4 4 4 5 5 4 4
5 6 6 6 5 5 4 4 5 5 4 4 4 4 4 4 4 5 4 4 4 5 5 5 5 5 5 5 4 5 4 4 4 4 4 4 4 4 4 5 5 5 5 4
5 5 5 5 6 5 5 5 6 5 5 4 4 4 4 4 4 4 4 4 4 5 5 5 5 5 5 4 4 4 4 4 4 4 4 4 4 4 4 5 5 4 4 4
5 5 6 6 7 7 6 6 6 6 5 5 5 5 4 4 4 4 4 4 4 4 5 5 5 5 5 4 4 4 4 4 4 4 4 4 4 4 5 5 5 5 5 4
7 7 7 7 7 7 6 6 5 5 5 5 4 4 4 4 4 4 4 3 3 4 4 4 4 5 4 4 4 4 3 3 4 4 4 4 4 4 4 5 5 6 5 4
5 5 6 6 6 6 6 5 5 5 5 4 4 4 4 4 4 4 4 4 4 4 4 5 5 5 4 4 4 3 3 4 4 4 4 4 4 4 4 5 5 5 5 4
4 4 4 4 4 5 5 4 4 4 3 3 3 3 4 4 3 4 4 4 3 4 4 5 5 4 4 4 4 4 4 4 4 4 3 4 4 4 4 5 5 5 5 5
4 3 3 3 4 4 4 3 3 3 3 3 3 4 4 4 3 3 3 4 4 4 4 5 4 4 4 4 4 4 4 4 4 4 4 4 4 4 4 5 5 5 5 5
3 3 3 3 3 3 2 2 2 2 2 2 3 3 3 3 4 4 4 4 4 4 4 3 3 4 5 4 4 4 4 4 4 4 4 4 4 4 5 5 5 5 5 5
2 2 2 2 2 2 2 1 2 2 2 2 3 3 3 3 3 3 4 3 3 4 4 3 4 5 5 4 4 4 4 4 4 4 4 4 4 5 5 5 5 5 5 5
2 2 2 2 1 1 2 2 2 2 2 2 2 2 3 2 2 3 3 3 4 4 3 4 4 5 5 3 3 4 4 4 4 4 4 4 4 5 5 5 5 4 4 5
2 2 1 1 1 2 2 2 2 1 1 1 2 2 2 2 2 2 3 3 3 3 3 4 4 5 4 3 3 3 4 4 4 4 4 4 4 4 5 4 4 5 5 5
2 2 2 2 2 2 2 2 1 1 1 1 2 2 1 1 2 2 2 2 3 3 3 3 3 3 3 3 3 4 4 4 4 4 4 4 5 5 4 4 5 4 4 4
2 1 1 1 1 1 2 2 2 2 1 1 2 2 2 1 1 2 2 2 2 2 2 3 3 3 3 3 4 4 4 4 4 4 4 4 4 4 4 5 4 4 4 4
Wind_Direction
257 253 245 249 244 228 239 252 263 271 271 280 294 302 303 313 352 1 3 3 2 5 12 18 23 13 19 27 14 342 261 287 277 274 270 265 258 257 256 255 259 262 257 252
245 234 247 253 254 245 247 255 256 265 272 293 297 300 308 314 355 356 358 355 353 353 358 359 0 355 2 21 11 349 325 315 311 303 290 278 272 268 265 264 263 260 260 257
253 246 258 249 244 242 243 249 245 253 271 285 292 298 295 300 349 356 353 347 344 346 345 347 339 326 323 341 347 325 308 315 315 299 296 291 282 276 273 268 267 263 266 264
255 249 248 239 111 239 240 246 239 255 276 264 281 282 263 215 318 337 345 340 338 337 339 342 335 323 314 306 303 304 310 319 318 307 300 297 288 280 276 271 267 264 264 265
237 249 262 232 191 230 239 248 224 252 265 273 332 241 208 289 313 316 324 328 329 327 328 329 330 318 304 297 292 297 308 311 310 303 297 293 288 285 282 279 274 270 264 260
232 247 255 204 101 276 249 239 208 260 245 223 231 260 268 324 299 301 313 326 331 324 323 327 326 312 297 298 299 298 299 299 300 297 293 291 292 292 290 280 273 273 269 265
237 246 257 57 92 192 229 303 68 235 221 213 242 296 325 257 276 291 298 308 318 317 318 318 315 302 288 294 302 307 305 300 297 293 292 290 292 293 291 286 282 276 274 274
229 239 245 98 146 208 307 11 273 244 238 244 283 325 334 241 260 279 287 288 296 305 313 313 310 298 289 294 306 308 303 300 299 296 295 291 289 289 288 286 280 279 280 280
235 251 15 140 217 296 339 307 294 259 253 254 266 283 278 266 268 277 282 285 285 291 300 300 298 294 291 297 305 308 304 297 294 294 294 288 286 286 287 288 287 287 286 285
248 252 274 269 278 302 308 304 298 272 258 254 263 271 270 265 264 276 283 284 282 284 290 295 297 293 291 293 295 295 296 294 291 289 292 292 289 284 284 287 288 290 287 286
249 260 275 261 276 292 305 312 305 287 275 268 264 265 265 263 263 272 280 280 278 280 286 293 299 298 299 296 294 292 294 296 295 292 288 286 286 287 282 283 292 290 286 286
254 255 254 265 274 276 279 283 281 287 285 278 264 258 258 266 272 275 280 285 286 287 291 295 295 294 297 297 293 289 290 293 298 296 290 286 284 291 309 285 301 301 297 291
264 271 269 277 273 273 273 275 275 275 271 267 268 262 262 268 269 274 281 289 294 293 292 293 295 297 296 294 291 286 285 287 290 291 288 284 283 283 293 305 292 282 282 290
253 256 265 269 276 275 277 276 278 280 278 268 271 270 271 272 276 279 282 289 293 292 293 295 295 297 301 294 289 287 287 287 286 283 285 282 282 287 287 289 299 304 290 283
252 257 262 273 272 274 278 275 274 273 279 281 279 276 274 275 277 282 289 294 293 291 293 297 296 302 308 300 291 289 289 286 285 287 286 286 284 285 287 286 287 294 300 295
265 267 258 257 262 270 270 266 266 269 270 275 278 281 280 279 286 292 294 293 289 288 291 295 298 305 308 301 293 289 290 299 296 290 288 288 287 287 287 289 287 285 288 292
255 268 271 269 266 266 266 265 264 263 264 266 274 280 280 284 290 293 295 293 288 287 292 295 303 310 307 300 298 296 293 292 290 286 282 284 286 289 289 287 287 285 285 295
253 260 264 263 263 265 268 269 268 265 265 266 271 272 271 276 284 291 294 293 290 293 304 308 312 312 308 305 304 296 287 285 284 285 286 286 290 292 292 291 290 289 290 289
263 271 274 272 269 265 264 266 267 268 269 262 257 257 262 270 280 286 286 281 280 289 305 314 318 308 305 309 310 295 290 286 286 288 289 293 290 291 292 292 291 291 291 291
273 279 278 279 275 267 264 266 264 264 263 256 255 259 267 276 280 279 276 275 281 295 303 311 309 307 304 299 304 295 292 286 286 291 292 289 293 297 296 294 293 294 294 292
276 278 277 276 277 277 269 264 258 258 262 253 252 257 264 271 270 267 268 280 295 309 308 307 302 301 300 305 299 294 289 290 291 291 291 291 294 296 295 295 295 295 295 294
283 280 279 280 277 279 278 271 261 255 256 255 258 258 260 263 266 267 268 281 300 313 305 295 296 310 318 314 297 296 296 295 295 294 291 291 293 294 295 295 294 294 292 291
293 292 289 289 287 296 306 298 282 265 256 256 259 259 261 269 269 267 276 292 300 307 302 297 311 319 319 308 301 300 299 297 297 295 293 292 292 293 297 299 297 295 294 292
309 312 313 319 322 307 303 307 299 281 264 261 263 264 266 272 279 283 290 302 313 307 299 312 317 314 312 305 301 303 302 300 296 295 295 297 299 298 296 297 298 298 296 294
297 289 287 283 284 293 299 301 300 296 289 288 288 284 278 280 284 291 295 298 308 303 299 310 315 312 306 302 304 304 304 305 306 305 302 302 302 299 299 300 301 302 303 301
281 274 274 275 282 286 283 274 280 294 296 299 302 301 297 299 301 299 300 303 302 306 307 306 306 313 311 310 311 310 311 312 311 308 306 305 302 299 297 299 299 297 299 302
273 261 261 273 286 281 271 261 263 275 278 279 294 302 302 304 307 309 310 310 310 312 317 318 316 315 312 310 312 315 315 314 315 313 310 306 302 300 299 297 297 297 299 298
Height
1502 1503 1505 1506 1507 1508 1508 1505 1506 1503 1505 1507 1509 1512 1513 1514 1514 1513 1513 1512 1511 1511 1510 1510 1510 1510 1510 1510 1510 1510 1510 1511 1511 1511 1511 1510 1510 1509 1509 1509 1508 1508 1508 1507
1503 1503 1505 1506 1505 1505 1505 1504 1504 1505 1505 1507 1509 1511 1512 1512 1512 1512 1512 1511 1511 1510 1510 1509 1509 1509 1509 1508 1508 1508 1508 1508 1508 1508 1508 1507 1507 1506 1506 1505 1505 1504 1504 1503
1502 1502 1504 1505 1502 1503 1503 1503 1503 1504 1505 1507 1508 1510 1511 1511 1511 1511 1511 1510 1510 1509 1508 1508 1508 1507 1507 1506 1506 1506 1506 1506 1506 1505 1505 1505 1504 1503 1502 1502 1501 1501 1500 1499
1502 1504 1508 1500 1501 1501 1502 1503 1504 1504 1505 1507 1508 1510 1510 1510 1510 1510 1509 1509 1508 1508 1507 1506 1506 1506 1505 1505 1504 1504 1504 1503 1503 1502 1502 1501 1501 1500 1499 1498 1497 1496 1495 1495
1503 1503 1497 1499 1501 1502 1502 1502 1504 1504 1505 1507 1508 1508 1508 1509 1509 1509 1508 1508 1507 1506 1505 1504 1504 1504 1503 1503 1502 1502 1501 1500 1500 1500 1499 1498 1497 1496 1496 1494 1493 1492 1491 1490
1502 1504 1500 1497 1500 1501 1502 1500 1502 1502 1503 1505 1506 1504 1504 1507 1507 1507 1507 1506 1505 1504 1504 1503 1502 1501 1501 1500 1499 1499 1498 1497 1497 1497 1496 1495 1494 1493 1492 1490 1489 1488 1487 1486
1501 1500 1493 1498 1501 1502 1503 1499 1501 1501 1502 1503 1504 1503 1504 1504 1505 1505 1505 1504 1504 1503 1502 1501 1500 1499 1498 1498 1497 1496 1495 1494 1494 1493 1492 1491 1490 1489 1487 1486 1485 1484 1483 1482
1498 1499 1498 1500 1501 1501 1500 1500 1500 1501 1502 1503 1503 1503 1502 1503 1503 1503 1502 1502 1501 1500 1499 1498 1498 1497 1496 1495 1494 1493 1491 1491 1490 1489 1488 1487 1486 1484 1483 1482 1481 1480 1478 1477
1496 1497 1498 1499 1500 1501 1501 1500 1500 1500 1500 1501 1501 1501 1501 1501 1501 1500 1500 1499 1499 1498 1497 1496 1495 1494 1493 1491 1490 1489 1488 1487 1486 1485 1484 1483 1482 1481 1479 1478 1477 1476 1475 1473
1497 1496 1498 1499 1499 1499 1499 1499 1499 1499 1499 1499 1499 1499 1498 1498 1498 1498 1498 1497 1496 1495 1494 1493 1492 1491 1489 1488 1487 1486 1485 1484 1483 1482 1481 1480 1478 1477 1476 1475 1473 1472 1471 1470
1495 1496 1498 1498 1498 1498 1498 1497 1497 1497 1497 1497 1497 1496 1496 1496 1495 1495 1494 1494 1493 1492 1491 1490 1489 1487 1486 1485 1483 1482 1481 1480 1479 1478 1477 1476 1475 1474 1473 1471 1471 1469 1468 1466
1493 1495 1496 1496 1496 1496 1496 1495 1495 1495 1494 1494 1494 1494 1493 1493 1493 1492 1491 1491 1490 1489 1488 1487 1485 1484 1483 1482 1480 1479 1478 1476 1475 1474 1473 1472 1471 1470 1468 1468 1466 1465 1464 1463
1494 1494 1494 1494 1494 1494 1494 1494 1493 1492 1492 1491 1491 1491 1491 1490 1490 1489 1489 1488 1487 1485 1484 1483 1482 1481 1480 1479 1477 1476 1475 1473 1472 1471 1470 1469 1468 1467 1465 1464 1462 1461 1460 1459
1492 1493 1492 1492 1492 1491 1491 1491 1490 1490 1489 1489 1489 1488 1488 1487 1487 1486 1485 1484 1483 1482 1481 1480 1479 1478 1476 1475 1474 1473 1472 1470 1469 1468 1467 1466 1465 1464 1462 1461 1459 1457 1456 1455
1490 1490 1490 1489 1489 1488 1488 1488 1487 1486 1486 1485 1485 1485 1484 1484 1483 1482 1482 1481 1480 1479 1478 1477 1475 1474 1473 1472 1470 1469 1468 1467 1466 1465 1464 1463 1461 1460 1459 1458 1456 1454 1453 1452
1486 1486 1486 1485 1485 1485 1484 1484 1483 1483 1482 1482 1481 1481 1481 1480 1480 1479 1478 1477 1476 1475 1474 1473 1472 1471 1470 1469 1467 1466 1465 1464 1463 1462 1460 1459 1458 1456 1455 1454 1453 1452 1450 1449
1483 1482 1482 1482 1481 1481 1481 1480 1480 1479 1479 1478 1478 1478 1477 1477 1476 1476 1475 1474 1473 1472 1471 1470 1469 1468 1467 1466 1465 1463 1462 1461 1460 1459 1457 1456 1455 1453 1452 1451 1449 1448 1447 1445
1480 1480 1479 1479 1478 1477 1476 1476 1476 1476 1475 1475 1475 1475 1474 1474 1473 1472 1472 1471 1470 1469 1469 1468 1466 1465 1464 1463 1462 1460 1459 1458 1457 1456 1454 1453 1451 1450 1448 1447 1446 1445 1443 1442
1476 1476 1475 1475 1474 1474 1473 1473 1472 1472 1472 1471 1471 1471 1471 1471 1470 1470 1469 1468 1467 1466 1465 1464 1463 1462 1461 1459 1458 1457 1456 1455 1454 1452 1451 1449 1448 1446 1445 1444 1442 1441 1439 1438
1472 1472 1471 1471 1470 1470 1470 1469 1469 1468 1468 1468 1467 1467 1467 1467 1467 1466 1465 1465 1464 1463 1462 1461 1460 1458 1457 1456 1455 1454 1453 1452 1450 1449 1448 1446 1445 1443 1442 1441 1439 1438 1436 1434
1469 1468 1468 1467 1467 1466 1466 1466 1465 1465 1465 1464 1464 1464 1464 1464 1463 1463 1462 1461 1461 1460 1459 1458 1457 1455 1454 1453 1451 1450 1449 1448 1447 1446 1445 1443 1442 1441 1439 1438 1436 1435 1433 1431
1466 1465 1465 1464 1464 1463 1463 1463 1462 1462 1461 1461 1461 1461 1460 1460 1460 1459 1459 1459 1458 1457 1456 1455 1453 1452 1451 1450 1448 1447 1446 1445 1444 1443 1441 1440 1439 1437 1436 1434 1433 1432 1430 1428
1464 1463 1462 1462 1461 1461 1460 1460 1460 1459 1459 1458 1458 1457 1457 1457 1456 1456 1456 1455 1454 1453 1452 1451 1450 1449 1448 1447 1445 1444 1443 1442 1440 1439 1438 1437 1436 1434 1433 1431 1430 1428 1427 1425
1462 1461 1461 1460 1460 1459 1458 1458 1457 1457 1456 1456 1455 1455 1454 1454 1453 1453 1452 1452 1451 1450 1449 1448 1447 1446 1445 1443 1442 1441 1439 1438 1437 1436 1435 1433 1432 1431 1430 1428 1426 1425 1423 1422
1460 1460 1459 1458 1458 1457 1457 1456 1455 1454 1454 1453 1453 1452 1452 1451 1451 1450 1449 1448 1447 1447 1446 1445 1444 1443 1442 1440 1439 1438 1436 1435 1434 1433 1431 1430 1429 1427 1426 1425 1423 1422 1420 1418
1458 1458 1457 1457 1456 1456 1455 1454 1453 1453 1452 1451 1450 1450 1449 1448 1448 1447 1446 1445 1445 1444 1443 1442 1441 1440 1439 1438 1437 1435 1434 1432 1431 1429 1428 1427 1425 1424 1423 1421 1420 1418 1417 1415
1456 1455 1455 1455 1454 1453 1453 1452 1451 1451 1450 1449 1448 1447 1447 1446 1445 1444 1444 1443 1442 1441 1440 1439 1439 1438 1436 1435 1434 1433 1431 1430 1428 1427 1425 1424 1422 1421 1419 1418 1416 1415 1413 1412